Weather History for KDKK - March, 2013

Change the Weather History Date:

Sunday, March 10, 2013

  Actual Average Record
Temperature  
Mean Temperature 57 °F -  
Max Temperature 66 °F 43 °F 70 °F (1986)
Min Temperature 48 °F 25 °F 4 °F (1984)
Degree Days  
Heating Degree Days 8    
Growing Degree Days 7 (Base 50)    
Moisture  
Dew Point 25 °F    
Average Humidity 30    
Maximum Humidity 33    
Minimum Humidity 25    
Precipitation  
Precipitation 0.00 in - - ()
Sea Level Pressure  
Sea Level Pressure 30.02 in    
Wind  
Wind Speed 15 mph (South)    
Max Wind Speed 23 mph    
Max Gust Speed 34 mph    
Visibility 10 miles    
Events      
Averages and records for this station are not official NWS values.
T = Trace of Precipitation, MM = Missing Value Source: NWS Daily Summary

Daily Weather History Graph

Daily Weather History Graph

Search for Another Location

Airport or City:

Trip Planner

Search our weather history database for the weather conditions in past years. The results will help you decide how hot, cold, wet, or windy it might be!

Date:

Astronomy

Mar. 10, 2013 Rise Set
Actual Time 7:37 AM EDT 7:17 PM EDT
Civil Twilight 7:09 AM EDT 7:46 PM EDT
Nautical Twilight 6:36 AM EDT 8:18 PM EDT
Astronomical Twilight 6:03 AM EDT 8:51 PM EDT
Moon 6:37 AM EDT (3/10) 6:23 PM EDT (3/10)
Length of Visible Light 12h 36m
Length of Day
11h 40m
Waning Crescent, 2% of the Moon is Illuminated
Mar 10
Waning Crescent
Mar 11
New
Mar 19
First Quarter
Mar 27
Full
Apr 3
Last Quarter

Hourly Weather History & Observations

Time (EDT) Temp. Dew Point Humidity Pressure Visibility Wind Dir Wind Speed Gust Speed Precip Events Conditions
12:53 AM 48.9 °F 21.0 °F 33% 30.14 in 10.0 mi South 13.8 mph 27.6 mph N/A   Clear
1:53 AM 50.0 °F 21.0 °F 32% 30.14 in 10.0 mi South 16.1 mph 24.2 mph N/A   Clear
3:53 AM 50.0 °F 19.0 °F 29% 30.10 in 10.0 mi South 15.0 mph 24.2 mph N/A   Mostly Cloudy
4:53 AM 50.0 °F 19.9 °F 31% 30.10 in 10.0 mi South 11.5 mph - N/A   Overcast
5:53 AM 50.0 °F 19.9 °F 31% 30.09 in 10.0 mi South 13.8 mph 27.6 mph N/A   Clear
6:53 AM 50.0 °F 19.9 °F 31% 30.08 in 10.0 mi South 16.1 mph 21.9 mph N/A   Partly Cloudy
8:53 AM 50.0 °F 19.9 °F 31% 30.08 in 10.0 mi South 17.3 mph 28.8 mph N/A   Overcast
9:53 AM 53.1 °F 21.0 °F 29% 30.07 in 10.0 mi South 21.9 mph 31.1 mph N/A   Clear
10:53 AM 55.0 °F 24.1 °F 30% 30.06 in 10.0 mi South 23.0 mph 34.5 mph N/A   Partly Cloudy
11:53 AM 55.9 °F 24.1 °F 29% 30.08 in 10.0 mi SW 12.7 mph 27.6 mph N/A   Scattered Clouds
12:53 PM 60.1 °F 28.0 °F 30% 30.05 in 10.0 mi SSW 18.4 mph 29.9 mph N/A   Clear
1:53 PM 62.1 °F 28.0 °F 28% 30.03 in 10.0 mi South 17.3 mph 27.6 mph N/A   Clear
2:53 PM 64.0 °F 30.9 °F 29% 29.99 in 10.0 mi South 13.8 mph 18.4 mph N/A   Clear
3:53 PM 66.0 °F 30.0 °F 26% 29.97 in 10.0 mi South 16.1 mph 20.7 mph N/A   Clear
4:53 PM 64.9 °F 30.0 °F 27% 29.96 in 10.0 mi SW 8.1 mph 18.4 mph N/A   Clear
5:53 PM 66.0 °F 28.9 °F 25% 29.95 in 10.0 mi Variable 6.9 mph - N/A   Clear
6:53 PM 63.0 °F 28.9 °F 28% 29.99 in 10.0 mi SSW 8.1 mph - N/A   Clear
7:53 PM 59.0 °F 28.0 °F 31% 29.98 in 10.0 mi South 8.1 mph - N/A   Clear
8:53 PM 59.0 °F 27.0 °F 29% 29.98 in 10.0 mi SSE 17.3 mph 23.0 mph N/A   Clear
9:53 PM 57.9 °F 27.0 °F 31% 29.96 in 10.0 mi South 17.3 mph 27.6 mph N/A   Clear
10:53 PM 57.0 °F 27.0 °F 32% 29.93 in 10.0 mi South 19.6 mph 28.8 mph N/A   Clear
11:53 PM 55.9 °F 27.0 °F 33% 29.92 in 10.0 mi South 23.0 mph 32.2 mph N/A   Clear
12:53 AM 55.9 °F 27.0 °F 33% 29.91 in 10.0 mi SSE 20.7 mph 27.6 mph N/A   Clear